H1 CPF 2 NER 2024 8 4 9 217 01 glonass145 H2 2213001 9145 54031 2024 8 4 0 0 0 2024 8 7 23 45 0 900 1 1 0 0 0 1 H9 10 0 60526 0.00000 0 -21142029.537 -13058393.783 -5693704.087 10 0 60526 900.00000 0 -20379926.931 -12574361.538 -8745166.014 10 0 60526 1800.00000 0 -19240460.855 -12024401.488 -11626455.320 10 0 60526 2700.00000 0 -17736056.401 -11465672.429 -14281527.562 10 0 60526 3600.00000 0 -15892046.096 -10952991.268 -16658760.774 10 0 60526 4500.00000 0 -13745807.232 -10536358.845 -18711961.973 10 0 60526 5400.00000 0 -11345405.175 -10258705.525 -20401265.132 10 0 60526 6300.00000 0 -8747799.358 -10153952.244 -21693903.276 10 0 60526 7200.00000 0 -6016686.964 -10245468.925 -22564840.100 10 0 60526 8100.00000 0 -3220074.190 -10544995.166 -22997249.499 10 0 60526 9000.00000 0 -427676.023 -11052068.374 -22982834.461 10 0 60526 9900.00000 0 2291747.621 -11753983.026 -22521979.898 10 0 60526 10800.00000 0 4873009.311 -12626282.368 -21623737.190 10 0 60526 11700.00000 0 7256957.223 -13633761.559 -20305641.326 10 0 60526 12600.00000 0 9392682.696 -14731939.839 -18593364.605 10 0 60526 13500.00000 0 11239381.816 -15868939.773 -16520213.879 10 0 60526 14400.00000 0 12767795.081 -16987694.592 -14126481.130 10 0 60526 15300.00000 0 13961166.766 -18028390.968 -11458659.967 10 0 60526 16200.00000 0 14815685.661 -18931044.761 -8568543.143 10 0 60526 17100.00000 0 15340390.361 -19638101.597 -5512218.393 10 0 60526 18000.00000 0 15556544.580 -20096953.032 -2348981.956 10 0 60526 18900.00000 0 15496510.096 -20262262.642 859809.242 10 0 60526 19800.00000 0 15202165.795 -20098004.227 4051924.622 10 0 60526 20700.00000 0 14722940.180 -19579126.297 7165463.232 10 0 60526 21600.00000 0 14113540.809 -18692772.659 10140050.055 10 0 60526 22500.00000 0 13431476.616 -17439007.380 12918002.375 10 0 60526 23400.00000 0 12734477.649 -15831013.115 15445443.782 10 0 60526 24300.00000 0 12077920.879 -13894753.646 17673344.615 10 0 60526 25200.00000 0 11512370.294 -11668113.722 19558469.111 10 0 60526 26100.00000 0 11081334.675 -9199550.935 21064211.353 10 0 60526 27000.00000 0 10819337.224 -6546314.498 22161304.294 10 0 60526 27900.00000 0 10750378.216 -3772303.672 22828388.489 10 0 60526 28800.00000 0 10886855.496 -945653.454 23052429.698 10 0 60526 29700.00000 0 11228988.588 1863853.520 22828977.283 10 0 60526 30600.00000 0 11764771.291 4587442.706 22162258.098 10 0 60526 31500.00000 0 12470455.631 7159961.767 21065103.511 10 0 60526 32400.00000 0 13311547.813 9522345.383 19558710.234 10 0 60526 33300.00000 0 14244275.374 11623828.940 17672238.621 10 0 60526 34200.00000 0 15217464.728 13423819.329 15442255.270 10 0 60526 35100.00000 0 16174750.808 14893345.171 12912029.790 10 0 60526 36000.00000 0 17057026.122 16016026.039 10130698.583 10 0 60526 36900.00000 0 17805025.984 16788520.276 7152311.403 10 0 60526 37800.00000 0 18361940.481 17220432.891 4034779.035 10 0 60526 38700.00000 0 18675942.146 17333687.794 838742.741 10 0 60526 39600.00000 0 18702521.532 17161391.412 -2373611.989 10 0 60526 40500.00000 0 18406530.828 16746236.424 -5539773.467 10 0 60526 41400.00000 0 17763847.864 16138514.014 -8598128.937 10 0 60526 42300.00000 0 16762589.044 15393819.774 -11489171.865 10 0 60526 43200.00000 0 15403818.908 14570551.393 -14156666.885 10 0 60526 44100.00000 0 13701725.513 13727305.045 -16548748.968 10 0 60526 45000.00000 0 11683253.569 12920281.451 -18618934.825 10 0 60526 45900.00000 0 9387210.235 12200811.896 -20327026.684 10 0 60526 46800.00000 0 6862880.725 11613108.999 -21639890.991 10 0 60526 47700.00000 0 4168211.397 11192337.201 -22532097.272 10 0 60526 48600.00000 0 1367635.987 10963084.011 -22986405.392 10 0 60526 49500.00000 0 -1470364.706 10938295.902 -22994092.516 10 0 60526 50400.00000 0 -4275868.477 11118722.977 -22555114.195 10 0 60526 51300.00000 0 -6980174.926 11492895.004 -21678097.201 10 0 60526 52200.00000 0 -9518416.362 12037629.105 -20380164.850 10 0 60526 53100.00000 0 -11832008.816 12719047.096 -18686598.648 10 0 60526 54000.00000 0 -13870842.493 13494059.194 -16630343.056 10 0 60526 54900.00000 0 -15595121.861 14312251.316 -14251363.076 10 0 60526 55800.00000 0 -16976780.158 15118096.392 -11595867.067 10 0 60526 56700.00000 0 -18000410.866 15853396.537 -8715409.754 10 0 60526 57600.00000 0 -18663678.705 16459853.262 -5665892.642 10 0 60526 58500.00000 0 -18977194.395 16881657.562 -2506481.124 10 0 60526 59400.00000 0 -18963859.715 17067990.717 701540.894 10 0 60526 60300.00000 0 -18657711.498 16975330.502 3895956.698 10 0 60526 61200.00000 0 -18102314.069 16569465.610 7014819.866 10 0 60526 62100.00000 0 -17348768.348 15827133.155 9997651.559 10 0 60526 63000.00000 0 -16453421.804 14737209.992 12786608.957 10 0 60526 63900.00000 0 -15475375.790 13301407.128 15327602.426 10 0 60526 64800.00000 0 -14473895.101 11534437.273 17571340.083 10 0 60526 65700.00000 0 -13505828.481 9463647.375 19474279.989 10 0 60526 66600.00000 0 -12623148.230 7128130.244 20999471.942 10 0 60526 67500.00000 0 -11870711.937 4577350.878 22117273.046 10 0 60526 68400.00000 0 -11284340.067 1869343.121 22805923.574 10 0 60526 69300.00000 0 -10889289.926 -931449.871 23051972.171 10 0 60526 70200.00000 0 -10699190.074 -3756603.188 22850542.174 10 0 60526 71100.00000 0 -10715480.133 -6536306.393 22205433.629 10 0 60526 72000.00000 0 -10927379.917 -9202021.804 21129058.506 10 0 60526 72900.00000 0 -11312389.782 -11689095.458 19642209.615 10 0 60526 73800.00000 0 -11837301.841 -13939212.976 17773666.770 10 0 60526 74700.00000 0 -12459680.170 -15902598.568 15559646.872 10 0 60526 75600.00000 0 -13129748.248 -17539865.790 13043107.596 10 0 60526 76500.00000 0 -13792604.408 -18823442.883 10272917.427 10 0 60526 77400.00000 0 -14390671.846 -19738513.035 7302907.625 10 0 60526 78300.00000 0 -14866279.428 -20283430.218 4190824.356 10 0 60526 79200.00000 0 -15164263.528 -20469593.279 997201.489 10 0 60526 80100.00000 0 -15234479.930 -20320783.888 -2215823.429 10 0 60526 81000.00000 0 -15034118.315 -19871996.820 -5385726.227 10 0 60526 81900.00000 0 -14529720.158 -19167812.657 -8450821.482 10 0 60526 82800.00000 0 -13698813.351 -18260382.588 -11351471.272 10 0 60526 83700.00000 0 -12531093.267 -17207111.431 -14031252.783 10 0 60526 84600.00000 0 -11029099.305 -16068137.809 -16438061.237 10 0 60526 85500.00000 0 -9208357.509 -14903718.787 -18525126.078 10 0 60527 0.00000 0 -7096982.736 -13771630.149 -20251920.317 10 0 60527 900.00000 0 -4734755.314 -12724691.744 -21584946.311 10 0 60527 1800.00000 0 -2171713.339 -11808523.744 -22498380.854 10 0 60527 2700.00000 0 533684.683 -11059625.950 -22974570.776 10 0 60527 3600.00000 0 3316747.819 -10503861.843 -23004367.787 10 0 60527 4500.00000 0 6109001.650 -10155409.667 -22587297.837 10 0 60527 5400.00000 0 8840796.626 -10016223.672 -21731562.294 10 0 60527 6300.00000 0 11443968.100 -10076027.088 -20453871.507 10 0 60527 7200.00000 0 13854438.226 -10312836.053 -18779114.424 10 0 60527 8100.00000 0 16014652.568 -10693991.555 -16739870.939 10 0 60527 9000.00000 0 17875751.141 -11177655.152 -14375776.483 10 0 60527 9900.00000 0 19399384.699 -11714704.975 -11732751.186 10 0 60527 10800.00000 0 20559101.872 -12250951.759 -8862108.430 10 0 60527 11700.00000 0 21341250.478 -12729581.277 -5819559.908 10 0 60527 12600.00000 0 21745356.601 -13093720.039 -2664136.361 10 0 60527 13500.00000 0 21783966.733 -13289015.982 542955.199 10 0 60527 14400.00000 0 21481960.701 -13266125.271 3739515.736 10 0 60527 15300.00000 0 20875365.052 -12983000.191 6863556.979 10 0 60527 16200.00000 0 20009717.397 -12406881.476 9854499.566 10 0 60527 17100.00000 0 18938050.875 -11515910.782 12654343.459 10 0 60527 18000.00000 0 17718583.598 -10300294.823 15208788.191 10 0 60527 18900.00000 0 16412210.133 -8762971.504 17468281.534 10 0 60527 19800.00000 0 15079900.144 -6919748.972 19388976.730 10 0 60527 20700.00000 0 13780113.002 -4798910.506 20933580.146 10 0 60527 21600.00000 0 12566336.373 -2440300.240 22072073.421 10 0 60527 22500.00000 0 11484851.476 106073.839 22782296.493 10 0 60527 23400.00000 0 10572818.289 2781863.097 23050380.436 10 0 60527 24300.00000 0 9856760.585 5522553.586 22871021.733 10 0 60527 25200.00000 0 9351514.149 8259904.696 22247592.458 10 0 60527 26100.00000 0 9059682.271 10924551.191 21192083.706 10 0 60527 27000.00000 0 8971621.540 13448661.699 19724882.646 10 0 60527 27900.00000 0 9065958.847 15768543.999 17874386.587 10 0 60527 28800.00000 0 9310618.199 17827089.166 15676460.559 10 0 60527 29700.00000 0 9664314.457 19575953.007 13173747.975 10 0 60527 30600.00000 0 10078451.228 20977383.712 10414846.932 10 0 60527 31500.00000 0 10499342.786 22005619.145 7453367.611 10 0 60527 32400.00000 0 10870665.835 22647795.042 4346888.885 10 0 60527 33300.00000 0 11136036.831 22904325.882 1155834.537 10 0 60527 34200.00000 0 11241604.860 22788742.407 -2057708.512 10 0 60527 35100.00000 0 11138549.171 22326992.922 -5231206.186 10 0 60527 36000.00000 0 10785374.312 21556238.258 -8302902.810 10 0 60527 36900.00000 0 10149904.358 20523191.949 -11213031.272 10 0 60527 37800.00000 0 9210890.580 19282076.515 -13904983.243 10 0 60527 38700.00000 0 7959163.362 17892282.968 -16326415.858 10 0 60527 39600.00000 0 6398278.738 16415833.171 -18430272.703 10 0 60527 40500.00000 0 4544631.426 14914752.669 -20175699.026 10 0 60527 41400.00000 0 2427028.862 13448465.122 -21528833.459 10 0 60527 42300.00000 0 85743.554 12071318.057 -22463461.213 10 0 60527 43200.00000 0 -2428917.077 10830343.714 -22961516.707 10 0 60527 44100.00000 0 -5058464.071 9763348.392 -23013426.608 10 0 60527 45000.00000 0 -7738426.630 8897409.570 -22618287.414 10 0 60527 45900.00000 0 -10400807.060 8247842.689 -21783874.921 10 0 60527 46800.00000 0 -12976689.363 7817679.567 -20526485.968 10 0 60527 47700.00000 0 -15398893.657 7597678.995 -18870616.020 10 0 60527 48600.00000 0 -17604566.812 7566867.698 -16848479.095 10 0 60527 49500.00000 0 -19537602.412 7693587.738 -14499379.425 10 0 60527 50400.00000 0 -21150790.248 7937005.287 -11868947.029 10 0 60527 51300.00000 0 -22407606.708 8249016.445 -9008251.859 10 0 60527 52200.00000 0 -23283572.545 8576469.261 -5972813.575 10 0 60527 53100.00000 0 -23767122.131 8863607.802 -2821525.979 10 0 60527 54000.00000 0 -23859948.850 9054634.873 384483.165 10 0 60527 54900.00000 0 -23576813.122 9096285.067 3583034.911 10 0 60527 55800.00000 0 -22944821.794 8940299.384 6712101.607 10 0 60527 56700.00000 0 -22002209.777 8545696.805 9711005.867 10 0 60527 57600.00000 0 -20796675.354 7880746.673 12521592.969 10 0 60527 58500.00000 0 -19383339.252 6924558.312 15089354.129 10 0 60527 59400.00000 0 -17822413.047 5668220.332 17364479.227 10 0 60527 60300.00000 0 -16176674.409 4115440.756 19302819.004 10 0 60527 61200.00000 0 -14508854.603 2282659.956 20866738.510 10 0 60527 62100.00000 0 -12879047.080 198630.202 22025845.767 10 0 60527 63000.00000 0 -11342245.029 -2096522.290 22757581.915 10 0 60527 63900.00000 0 -9946110.268 -4552715.410 23047661.639 10 0 60527 64800.00000 0 -8729066.248 -7111752.103 22890355.380 10 0 60527 65700.00000 0 -7718794.463 -9709509.331 22288607.667 10 0 60527 66600.00000 0 -6931196.899 -12278385.566 21253988.754 10 0 60527 67500.00000 0 -6369867.781 -14749906.373 19806479.803 10 0 60527 68400.00000 0 -6026096.743 -17057380.668 17974094.838 10 0 60527 69300.00000 0 -5879403.321 -19138497.663 15792345.845 10 0 60527 70200.00000 0 -5898580.362 -20937756.543 13303560.417 10 0 60527 71100.00000 0 -6043202.400 -22408627.399 10556064.348 10 0 60527 72000.00000 0 -6265535.235 -23515352.793 7603244.520 10 0 60527 72900.00000 0 -6512765.689 -24234314.075 4502510.035 10 0 60527 73800.00000 0 -6729456.643 -24554904.763 1314171.894 10 0 60527 74700.00000 0 -6860122.543 -24479873.934 -1899736.475 10 0 60527 75600.00000 0 -6851815.195 -24025125.093 -5076674.106 10 0 60527 76500.00000 0 -6656609.025 -23218979.126 -8154818.198 10 0 60527 77400.00000 0 -6233879.171 -22100932.762 -11074275.653 10 0 60527 78300.00000 0 -5552274.616 -20719965.512 -13778255.854 10 0 60527 79200.00000 0 -4591301.635 -19132467.157 -16214181.017 10 0 60527 80100.00000 0 -3342449.524 -17399873.876 -18334711.891 10 0 60527 81000.00000 0 -1809810.198 -15586113.226 -20098668.583 10 0 60527 81900.00000 0 -10164.745 -13754965.854 -21471828.714 10 0 60527 82800.00000 0 2027467.326 -11967455.039 -22427587.704 10 0 60527 83700.00000 0 4262797.792 -10279373.383 -22947469.023 10 0 60527 84600.00000 0 6645718.298 -8739049.847 -23021475.231 10 0 60527 85500.00000 0 9118167.717 -7385449.750 -22648273.797 10 0 60528 0.00000 0 11616340.680 -6246686.203 -21835214.944 10 0 60528 900.00000 0 14073147.076 -5339003.256 -20598181.290 10 0 60528 1800.00000 0 16420817.336 -4666273.260 -18961273.835 10 0 60528 2700.00000 0 18593550.113 -4220025.859 -16956339.223 10 0 60528 3600.00000 0 20530089.484 -3980007.409 -14622348.514 10 0 60528 4500.00000 0 22176126.328 -3915245.271 -12004639.149 10 0 60528 5400.00000 0 23486424.392 -3985571.158 -9154034.741 10 0 60528 6300.00000 0 24426583.073 -4143538.432 -6125859.590 10 0 60528 7200.00000 0 24974363.964 -4336651.787 -2978866.877 10 0 60528 8100.00000 0 25120526.536 -4509814.781 225898.768 10 0 60528 9000.00000 0 24869138.568 -4607891.526 3426282.439 10 0 60528 9900.00000 0 24237348.945 -4578274.111 6560220.965 10 0 60528 10800.00000 0 23254632.768 -4373347.200 9566942.584 10 0 60528 11700.00000 0 21961540.685 -3952745.480 12388141.195 10 0 60528 12600.00000 0 20408004.954 -3285308.416 14969102.578 10 0 60528 13500.00000 0 18651273.100 -2350649.441 17259761.131 10 0 60528 14400.00000 0 16753555.410 -1140272.789 19215667.007 10 0 60528 15300.00000 0 14779484.205 341809.963 20798845.372 10 0 60528 16200.00000 0 12793490.541 2078990.753 21978531.598 10 0 60528 17100.00000 0 10857207.185 4042508.605 22731768.531 10 0 60528 18000.00000 0 9027005.603 6192409.046 23043854.528 10 0 60528 18900.00000 0 7351769.059 8478981.152 22908633.620 10 0 60528 19800.00000 0 5870994.072 10844614.165 22328621.991 10 0 60528 20700.00000 0 4613299.042 13225997.968 21314967.848 10 0 60528 21600.00000 0 3595401.893 15556577.291 19887244.744 10 0 60528 22500.00000 0 2821609.228 17769158.555 18073081.482 10 0 60528 23400.00000 0 2283838.193 19798561.445 15907634.763 10 0 60528 24300.00000 0 1962169.953 21584205.000 13432913.862 10 0 60528 25200.00000 0 1825911.317 23072520.135 10696969.574 10 0 60528 26100.00000 0 1835119.509 24219087.376 7752962.633 10 0 60528 27000.00000 0 1942525.299 24990409.677 4658129.412 10 0 60528 27900.00000 0 2095772.556 25365245.306 1472665.120 10 0 60528 28800.00000 0 2239878.602 25335444.187 -1741453.297 10 0 60528 29700.00000 0 2319810.085 24906252.052 -4921680.880 10 0 60528 30600.00000 0 2283063.970 24096069.364 -8006130.430 10 0 60528 31500.00000 0 2082142.971 22935675.191 -10934785.343 10 0 60528 32400.00000 0 1676819.199 21466949.007 -13650674.910 10 0 60528 33300.00000 0 1036088.944 19741144.705 -16100988.315 10 0 60528 34200.00000 0 139734.787 17816790.070 -18238105.043 10 0 60528 35100.00000 0 -1020571.894 15757300.623 -20020521.357 10 0 60528 36000.00000 0 -2440675.301 13628408.499 -21413654.906 10 0 60528 36900.00000 0 -4103872.191 11495514.496 -22390512.123 10 0 60528 37800.00000 0 -5981384.601 9421074.175 -22932206.096 10 0 60528 38700.00000 0 -8033348.961 7462126.966 -23028315.595 10 0 60528 39600.00000 0 -10210280.594 5668070.872 -22677079.069 10 0 60528 40500.00000 0 -12454952.777 4078774.580 -21885420.669 10 0 60528 41400.00000 0 -14704612.403 2723104.473 -20668808.383 10 0 60528 42300.00000 0 -16893440.237 1617926.445 -19050947.552 10 0 60528 43200.00000 0 -18955153.718 767622.530 -17063315.980 10 0 60528 44100.00000 0 -20825644.346 164140.765 -14744549.765 10 0 60528 45000.00000 0 -22445540.159 -212425.440 -12139691.717 10 0 60528 45900.00000 0 -23762587.027 -392754.330 -9299316.853 10 0 60528 46800.00000 0 -24733749.847 -416756.015 -6278551.714 10 0 60528 47700.00000 0 -25326946.375 -331641.755 -3136006.403 10 0 60528 48600.00000 0 -25522341.561 -189684.518 67360.115 10 0 60528 49500.00000 0 -25313148.718 -45765.881 3269419.559 10 0 60528 50400.00000 0 -24705904.391 45186.819 6408075.861 10 0 60528 51300.00000 0 -23720205.572 30764.563 9422465.524 10 0 60528 52200.00000 0 -22387920.372 -136466.512 12254133.683 10 0 60528 53100.00000 0 -20751905.188 -496719.442 14848163.240 10 0 60528 54000.00000 0 -18864281.836 -1081046.960 17154235.524 10 0 60528 54900.00000 0 -16784346.307 -1909790.448 19127602.315 10 0 60528 55800.00000 0 -14576195.985 -2991483.273 20729950.826 10 0 60528 56700.00000 0 -12306173.709 -4322255.608 21930145.364 10 0 60528 57600.00000 0 -10040234.467 -5885766.971 22704831.703 10 0 60528 58500.00000 0 -7841343.666 -7653670.818 23038892.706 10 0 60528 59400.00000 0 -5767014.538 -9586593.458 22925746.441 10 0 60528 60300.00000 0 -3867086.451 -11635588.177 22367480.831 10 0 60528 61200.00000 0 -2181836.049 -13744005.577 21374821.769 10 0 60528 62100.00000 0 -740499.382 -15849703.656 19966934.618 10 0 60528 63000.00000 0 439733.741 -17887506.717 18171062.044 10 0 60528 63900.00000 0 1354211.489 -19791811.351 16022004.237 10 0 60528 64800.00000 0 2010777.569 -21499231.127 13561450.615 10 0 60528 65700.00000 0 2429196.717 -22951169.510 10837175.141 10 0 60528 66600.00000 0 2640072.650 -24096212.904 7902110.289 10 0 60528 67500.00000 0 2683304.594 -24892242.923 4813317.364 10 0 60528 68400.00000 0 2606148.223 -25308178.410 1630873.250 10 0 60528 69300.00000 0 2460963.853 -25325273.121 -1583304.265 10 0 60528 70200.00000 0 2302748.276 -24937913.696 -4766669.019 10 0 60528 71100.00000 0 2186555.980 -24153883.715 -7857272.281 10 0 60528 72000.00000 0 2164920.356 -22994082.369 -10794976.863 10 0 60528 72900.00000 0 2285385.465 -21491709.470 -13522634.879 10 0 60528 73800.00000 0 2588254.143 -19690951.288 -15987205.352 10 0 60528 74700.00000 0 3104648.858 -17645222.806 -18140789.250 10 0 60528 75600.00000 0 3854968.216 -15415040.680 -19941561.527 10 0 60528 76500.00000 0 4847804.988 -13065616.502 -21354582.101 10 0 60528 77400.00000 0 6079371.843 -10664271.519 -22352470.289 10 0 60528 78300.00000 0 7533459.321 -8277780.953 -22915930.259 10 0 60528 79200.00000 0 9181928.187 -5969758.618 -23034117.998 10 0 60528 80100.00000 0 10985715.736 -3798190.389 -22704843.517 10 0 60528 81000.00000 0 12896314.219 -1813218.430 -21934605.114 10 0 60528 81900.00000 0 14857659.826 -55267.257 -20738455.724 10 0 60528 82800.00000 0 16808353.601 1446411.738 -19139704.378 10 0 60528 83700.00000 0 18684121.904 2674718.324 -17169458.923 10 0 60528 84600.00000 0 20420414.013 3625165.017 -14866018.920 10 0 60528 85500.00000 0 21955028.816 4305804.734 -12274130.530 10 0 60529 0.00000 0 23230661.133 4736629.277 -9444117.963 10 0 60529 900.00000 0 24197262.239 4948465.610 -6430906.597 10 0 60529 1800.00000 0 24814114.526 4981417.174 -3292960.427 10 0 60529 2700.00000 0 25051536.000 4882917.664 -91149.212 10 0 60529 3600.00000 0 24892141.764 4705479.508 3112429.051 10 0 60529 4500.00000 0 24331610.452 4504232.873 6255649.075 10 0 60529 5400.00000 0 23378923.490 4334359.378 9277559.189 10 0 60529 6300.00000 0 22056067.025 4248529.091 12119559.093 10 0 60529 7200.00000 0 20397208.751 4294449.157 14726531.832 10 0 60529 8100.00000 0 18447383.715 4512627.660 17047908.323 10 0 60529 9000.00000 0 16260743.456 4934447.241 19038644.237 10 0 60529 9900.00000 0 13898440.933 5580630.018 20660090.691 10 0 60529 10800.00000 0 11426238.610 6460159.069 21880742.382 10 0 60529 11700.00000 0 8911938.429 7569702.672 22676849.033 10 0 60529 12600.00000 0 6422739.737 8893566.673 23032878.602 10 0 60529 13500.00000 0 4022634.106 10404178.384 22941823.323 10 0 60529 14400.00000 0 1769944.482 12063083.339 22405342.516 10 0 60529 15300.00000 0 -284889.745 13822414.840 21433738.936 10 0 60529 16200.00000 0 -2101190.269 15626776.392 20045768.448 10 0 60529 17100.00000 0 -3649502.340 17415459.700 18268285.835 10 0 60529 18000.00000 0 -4912581.594 19124906.491 16135732.629 10 0 60529 18900.00000 0 -5885864.381 20691311.789 13689475.926 10 0 60529 19800.00000 0 -6577402.278 22053259.860 10977010.131 10 0 60529 20700.00000 0 -7007263.909 23154282.024 8051036.553 10 0 60529 21600.00000 0 -7206429.790 23945228.444 4968438.396 10 0 60529 22500.00000 0 -7215227.416 24386353.313 1789171.141 10 0 60529 23400.00000 0 -7081373.531 24449024.739 -1424909.670 10 0 60529 24300.00000 0 -6857707.388 24116986.293 -4611259.688 10 0 60529 25200.00000 0 -6599712.132 23387116.181 -7707871.532 10 0 60529 26100.00000 0 -6362930.561 22269651.308 -10654490.108 10 0 60529 27000.00000 0 -6200386.029 20787866.368 -13393792.782 10 0 60529 27900.00000 0 -6160118.957 18977221.222 -15872510.533 10 0 60529 28800.00000 0 -6282944.291 16884012.448 -18042467.625 10 0 60529 29700.00000 0 -6600525.640 14563585.889 -19861519.205 10 0 60529 30600.00000 0 -7133848.088 12078185.337 -21294368.666 10 0 60529 31500.00000 0 -7892154.561 9494527.645 -22313249.150 10 0 60529 32400.00000 0 -8872390.792 6881205.663 -22898456.561 10 0 60529 33300.00000 0 -10059182.373 4306027.192 -23038724.496 10 0 60529 34200.00000 0 -11425344.907 1833400.421 -22731434.592 10 0 60529 35100.00000 0 -12932905.906 -478126.030 -21982659.038 10 0 60529 36000.00000 0 -14534595.672 -2578067.210 -20807035.068 10 0 60529 36900.00000 0 -16175744.863 -4425859.669 -19227474.384 10 0 60529 37800.00000 0 -17796509.481 -5992297.270 -17274713.472 10 0 60529 38700.00000 0 -19334330.447 -7260486.940 -14986713.624 10 0 60529 39600.00000 0 -20726525.068 -8226286.240 -12407922.329 10 0 60529 40500.00000 0 -21912902.171 -8898206.303 -9588410.205 10 0 60529 41400.00000 0 -22838291.810 -9296785.940 -6582900.064 10 0 60529 42300.00000 0 -23454883.618 -9453464.626 -3449706.759 10 0 60529 43200.00000 0 -23724275.950 -9409003.048 -249608.208 10 0 60529 44100.00000 0 -23619150.086 -9211518.735 2955330.611 10 0 60529 45000.00000 0 -23124499.223 -8914220.287 6102957.973 10 0 60529 45900.00000 0 -22238360.645 -8572936.264 9132236.830 10 0 60529 46800.00000 0 -20972020.049 -8243543.260 11984424.237 10 0 60529 47700.00000 0 -19349679.099 -7979401.875 14604206.081 10 0 60529 48600.00000 0 -17407599.554 -7828908.759 16940765.412 10 0 60529 49500.00000 0 -15192758.993 -7833268.038 18948764.095 10 0 60529 50400.00000 0 -12761073.432 -8024576.114 20589219.142 10 0 60529 51300.00000 0 -10175259.908 -8424300.791 21830257.244 10 0 60529 52200.00000 0 -7502426.968 -9042219.173 22647733.285 10 0 60529 53100.00000 0 -4811492.183 -9875859.726 23025701.098 10 0 60529 54000.00000 0 -2170532.909 -10910472.965 22956727.472 10 0 60529 54900.00000 0 355820.681 -12119533.233 22442043.134 10 0 60529 55800.00000 0 2708842.888 -13465751.933 21491527.370 10 0 60529 56700.00000 0 4837918.755 -14902561.171 20123525.900 10 0 60529 57600.00000 0 6702408.166 -16376006.981 18364504.679 10 0 60529 58500.00000 0 8273090.587 -17826973.869 16248545.336 10 0 60529 59400.00000 0 9533130.537 -19193648.184 13816691.084 10 0 60529 60300.00000 0 10478523.802 -20414117.296 11116154.899 10 0 60529 61200.00000 0 11118005.983 -21428995.347 8199404.744 10 0 60529 62100.00000 0 11472427.713 -22183964.693 5123143.268 10 0 60529 63000.00000 0 11573623.402 -22632125.279 1947201.854 10 0 60529 63900.00000 0 11462821.972 -22736051.913 -1266629.055 10 0 60529 64800.00000 0 11188667.645 -22469471.582 -4455809.871 10 0 60529 65700.00000 0 10804935.606 -21818488.927 -7558277.544 10 0 60529 66600.00000 0 10368040.417 -20782307.193 -10513662.027 10 0 60529 67500.00000 0 9934443.946 -19373413.453 -13264468.802 10 0 60529 68400.00000 0 9558073.725 -17617219.724 -15757203.561 10 0 60529 69300.00000 0 9287862.092 -15551174.771 -17943416.423 10 0 60529 70200.00000 0 9165510.992 -13223383.770 -19780645.054 10 0 60529 71100.00000 0 9223577.489 -10690793.720 -21233238.349 10 0 60529 72000.00000 0 9483961.112 -8017020.605 -22273044.941 10 0 60529 72900.00000 0 9956856.876 -5269909.089 -22879953.751 10 0 60529 73800.00000 0 10640217.962 -2518926.357 -23042276.844 10 0 60529 74700.00000 0 11519750.454 167501.690 -22756967.938 10 0 60529 75600.00000 0 12569440.085 2724601.689 -22029673.159 10 0 60529 76500.00000 0 13752588.676 5093703.863 -20874613.714 10 0 60529 77400.00000 0 15023316.586 7224432.103 -19314303.273 10 0 60529 78300.00000 0 16328468.129 9076543.454 -17379105.888 10 0 60529 79200.00000 0 17609840.071 10621342.012 -15106643.131 10 0 60529 80100.00000 0 18806639.811 11842610.039 -12541061.971 10 0 60529 81000.00000 0 19858070.365 12737019.175 -9732177.470 10 0 60529 81900.00000 0 20705933.813 13314006.300 -6734506.749 10 0 60529 82800.00000 0 21297144.045 13595120.764 -3606212.800 10 0 60529 83700.00000 0 21586043.485 13612871.840 -407978.487 10 0 60529 84600.00000 0 21536426.396 13409125.957 2798167.598 10 0 60529 85500.00000 0 21123183.781 13033122.084 5950050.705 99